Dewpoint
48 48 47 47 47 45 46 46 46 48 48 48 49 50 53 55 55 54 49 50 51 52 51 50 49 44 46 45 46 47 35 32 35 34 37 41 42 38 39 38 36 35 37 39 42
46 46 45 45 44 46 45 45 46 47 47 46 48 51 54 56 53 50 52 53 53 53 46 44 45 44 44 43 43 38 36 35 39 41 41 41 40 40 40 40 38 38 38 41 42
47 47 47 47 47 46 46 46 46 46 47 47 48 50 54 56 48 45 51 54 55 54 45 46 48 45 44 40 39 38 34 40 41 42 44 41 39 37 40 41 40 40 38 40 41
48 48 48 48 48 46 46 45 45 46 46 47 48 51 55 53 36 43 52 55 55 52 48 51 48 43 40 36 39 36 37 38 42 43 43 41 39 37 36 36 35 38 39 39 40
47 47 47 45 45 47 45 45 46 46 46 46 48 52 53 45 43 47 49 51 55 51 46 48 46 43 38 36 35 34 34 40 42 42 42 41 39 37 35 33 36 37 37 38 38
46 46 46 46 46 45 46 45 47 47 46 47 49 52 49 39 46 48 47 51 52 50 47 46 46 44 37 34 32 32 34 35 37 37 36 36 34 37 33 32 34 35 36 35 36
45 46 46 47 45 45 46 47 50 48 47 47 48 51 48 42 46 47 47 50 52 51 47 45 47 44 36 31 34 34 31 33 35 35 35 35 34 33 31 32 33 34 34 33 34
46 46 46 47 47 48 48 49 49 50 49 48 50 51 42 46 48 47 46 48 52 50 47 48 48 45 36 34 33 30 30 27 31 34 34 35 29 34 30 32 33 32 32 32 32
46 47 47 48 49 50 50 51 51 52 51 51 51 49 39 45 44 45 46 47 51 50 49 48 42 40 34 31 29 30 26 26 28 34 33 33 30 32 29 30 32 32 32 31 31
45 46 47 47 49 50 50 50 51 52 53 52 51 44 41 39 40 43 46 50 47 47 46 43 40 38 33 30 24 26 27 27 26 31 32 32 32 29 28 29 30 31 31 31 31
45 45 46 47 48 50 48 45 40 41 49 42 42 40 40 42 43 42 48 45 45 40 38 39 36 32 32 32 30 28 27 26 28 32 31 30 29 30 28 28 28 29 30 30 30
44 45 45 46 48 49 47 43 44 44 37 39 40 44 45 45 39 41 47 42 41 35 36 35 32 35 34 32 30 29 27 26 27 32 31 29 29 31 28 28 28 29 29 30 29
44 44 44 45 47 44 43 43 45 45 37 36 39 39 41 42 40 39 45 43 40 36 35 30 29 34 33 32 30 29 27 27 27 32 32 29 27 28 29 28 28 29 30 30 29
44 44 43 44 41 42 41 44 44 46 31 28 36 39 41 40 38 40 44 41 39 37 35 34 34 33 33 32 32 29 30 28 27 27 25 29 22 23 26 27 28 28 29 29 29
43 43 43 44 44 40 42 43 44 43 1 32 39 43 41 37 36 38 44 42 37 36 36 32 34 33 32 32 32 31 31 29 28 27 25 27 25 23 25 24 25 27 29 29 29
42 42 43 43 45 43 44 44 44 28 4 32 37 38 38 38 37 40 40 43 41 36 36 35 36 34 33 33 33 32 31 29 28 29 23 25 26 21 22 23 24 27 28 29 29
42 41 42 44 37 44 44 42 25 11 24 28 31 36 37 35 37 37 37 37 34 30 29 31 32 33 32 33 33 34 31 24 21 20 19 22 24 23 21 21 22 23 26 28 29
41 40 42 43 45 44 44 34 18 13 23 29 28 33 31 33 32 34 35 34 36 33 31 27 23 30 31 31 29 31 31 23 16 18 16 20 20 20 23 24 24 25 27 28 29
38 34 42 44 44 44 39 26 16 23 28 27 26 23 23 28 31 31 32 31 33 35 28 28 27 30 30 30 30 31 28 31 25 23 21 20 22 23 23 23 23 25 26 27 27
30 35 38 45 45 43 32 25 26 29 30 27 21 21 21 21 22 23 25 31 31 36 37 32 26 33 33 33 32 31 32 26 27 18 16 22 21 18 20 21 22 23 25 26 23
27 14 36 47 46 38 28 28 29 28 28 26 25 24 25 24 25 22 22 26 33 34 36 34 29 24 27 26 21 28 29 30 30 28 20 19 23 16 18 18 21 22 23 21 18
13 2 32 44 34 34 29 31 30 28 27 27 33 29 28 27 24 21 20 23 33 33 26 33 29 22 21 23 32 31 27 30 20 21 24 23 21 19 19 20 22 21 17 13 12
16 14 24 40 24 24 28 27 25 20 25 21 25 24 23 19 22 20 19 28 32 29 30 31 25 17 13 24 30 26 24 24 26 26 20 18 19 26 25 22 17 16 12 11 8
20 5 12 33 33 27 23 19 18 19 17 19 18 13 19 20 16 13 17 20 25 26 27 29 24 19 12 10 18 16 18 22 20 14 13 16 16 14 23 20 18 14 11 10 8
15 10 16 6 4 3 4 2 1 8 14 14 16 15 14 18 19 14 15 16 13 21 28 27 18 20 21 22 21 19 17 18 18 18 15 8 8 11 16 19 26 15 10 9 8
10 11 17 7 8 6 6 4 11 10 9 14 14 11 9 11 16 13 9 13 8 14 23 25 13 16 15 15 16 17 18 18 17 17 16 15 12 14 21 20 18 13 10 9 9
25 24 22 10 8 4 7 8 8 10 12 12 10 9 6 8 13 14 15 16 16 17 17 20 18 14 8 8 8 6 9 9 7 5 3 -3 5 21 22 22 19 13 11 10 9
Wind_Speed
16 16 16 16 16 14 13 12 11 11 11 13 12 14 15 13 10 1 7 8 7 8 1 12 7 10 7 4 7 4 5 3 3 2 4 6 3 5 3 3 3 5 2 1 12
15 15 15 15 15 16 15 13 11 11 10 10 12 13 15 14 3 8 11 9 12 3 8 14 15 12 3 4 7 5 4 4 5 6 4 7 5 3 2 4 1 2 4 4 8
17 17 16 16 16 15 15 15 14 10 10 9 11 12 14 7 3 5 4 15 12 9 5 7 13 12 8 7 4 9 6 9 4 9 7 3 3 1 5 6 1 4 10 7 8
18 18 18 18 16 16 15 14 15 13 11 10 10 11 15 2 2 2 2 7 12 9 8 8 9 9 10 10 12 6 8 10 2 5 8 5 1 3 4 2 6 1 11 4 8
18 20 20 19 18 15 15 14 14 13 12 10 11 10 4 4 8 5 3 2 10 10 11 8 10 7 13 12 12 11 6 12 12 12 14 8 8 7 4 3 4 10 8 7 6
19 19 19 19 18 16 14 13 13 12 11 10 10 11 2 6 3 3 6 4 9 9 11 7 7 7 6 4 16 9 10 9 9 14 10 8 5 5 1 7 7 6 7 6 7
21 21 20 20 18 16 13 13 14 10 7 8 9 5 4 14 2 4 3 2 5 12 9 7 4 7 1 3 2 8 10 4 8 11 8 12 7 13 5 8 8 8 7 7 7
22 22 20 18 16 15 14 14 12 11 9 7 8 4 8 4 3 7 4 1 2 8 5 10 7 3 2 8 4 4 4 10 7 12 6 10 17 11 15 17 16 15 13 12 11
22 22 21 20 18 18 18 17 12 8 8 7 4 2 10 10 4 4 7 5 5 2 3 8 7 3 4 6 5 2 6 9 4 13 6 11 8 8 12 15 14 14 14 13 13
23 23 22 20 20 21 22 12 5 2 3 5 7 3 7 2 2 2 3 13 4 6 6 3 6 9 7 9 17 11 10 6 11 8 7 7 17 4 10 12 14 14 14 15 17
23 23 22 21 20 21 12 4 4 3 5 9 6 5 2 4 0 3 5 6 6 5 9 6 10 26 18 19 10 13 12 15 6 9 13 20 21 17 16 15 19 20 21 20 20
24 24 23 23 21 19 2 3 2 2 13 15 23 16 12 3 3 5 9 8 7 9 7 5 21 19 14 17 17 12 13 18 3 5 11 3 18 17 18 19 24 26 23 24 18
25 25 25 25 24 3 2 1 4 2 7 10 7 8 8 10 6 6 13 6 6 11 14 13 5 17 13 13 17 16 23 12 11 4 4 2 13 18 12 16 13 21 19 19 26
26 24 24 24 3 6 2 5 6 2 6 6 3 4 5 8 5 6 12 5 3 11 10 12 10 8 17 19 20 26 13 15 13 10 17 11 23 14 12 20 22 23 23 25 25
26 24 23 13 7 3 3 7 6 1 10 3 1 1 2 7 2 2 1 1 8 7 5 8 7 15 15 29 16 19 11 18 13 18 10 7 9 17 10 25 28 25 29 29 25
26 26 19 2 2 5 6 6 1 3 8 2 2 1 3 7 3 1 1 3 0 5 6 10 2 6 14 8 20 5 2 3 6 10 23 24 21 30 23 23 16 18 28 29 28
31 26 10 1 2 3 5 1 0 6 3 4 2 1 3 3 4 7 5 7 8 4 12 6 17 10 7 7 4 13 8 9 9 14 17 22 19 30 11 26 34 31 28 28 24
32 20 2 5 3 3 1 2 5 3 3 4 4 3 3 3 6 3 4 10 13 9 6 9 12 16 14 23 14 20 17 14 14 9 11 6 12 17 22 29 24 27 11 17 25
20 6 3 3 10 3 2 4 5 2 4 8 12 3 2 3 5 4 7 12 7 18 13 7 10 3 5 12 14 6 18 23 20 21 11 8 7 12 9 13 15 25 14 15 21
9 7 4 4 8 2 4 5 4 3 6 3 4 2 14 6 11 10 6 2 5 1 6 3 11 3 3 1 6 17 5 6 10 11 16 10 12 17 7 22 23 20 23 13 17
5 6 3 3 2 1 4 6 5 7 4 5 6 7 7 8 8 10 5 9 7 6 5 0 4 6 2 5 10 4 3 6 5 9 8 6 4 7 11 9 14 11 4 10 14
5 6 3 2 1 2 4 3 5 5 3 3 2 5 7 11 10 8 7 7 10 5 10 3 4 10 12 16 4 1 7 5 11 10 9 11 7 4 6 9 10 3 6 11 14
9 4 4 1 3 3 5 7 4 5 4 6 2 8 8 8 7 12 3 6 11 13 6 6 5 10 15 1 5 3 5 5 10 6 14 14 7 2 8 14 7 1 7 12 13
3 5 4 4 1 5 5 6 5 3 3 8 6 7 8 9 5 6 13 6 10 12 12 8 4 13 18 16 13 19 7 3 7 10 15 17 21 31 16 18 10 5 11 13 17
7 2 0 6 4 9 5 4 8 5 8 9 4 9 7 6 8 14 9 8 7 10 4 4 14 12 15 19 20 22 26 19 15 17 18 20 26 27 25 20 12 12 15 17 18
4 5 5 5 5 5 5 2 3 4 8 5 7 7 6 6 9 18 19 8 10 5 7 2 19 15 20 17 17 23 20 19 21 18 21 25 33 25 12 4 4 12 16 18 19
3 2 1 5 5 4 4 6 6 8 3 5 6 12 15 13 9 13 12 14 15 8 9 8 8 11 25 8 11 15 18 24 18 17 15 22 13 9 13 12 8 10 15 17 18
Wind_Direction
342 342 345 342 334 335 331 329 326 329 327 328 328 327 329 339 333 285 238 216 183 227 208 132 136 150 83 103 115 127 80 158 158 167 2 46 58 10 23 124 10 21 41 93 127
342 339 341 336 337 330 326 319 320 319 321 320 323 320 327 333 325 266 243 233 217 207 136 160 155 160 115 178 145 130 135 212 217 319 13 359 51 334 125 185 208 51 39 122 134
346 345 340 337 334 328 323 320 315 315 313 312 314 316 328 335 327 255 289 224 216 178 145 169 148 151 199 181 185 166 172 170 185 265 324 322 4 277 185 210 232 188 181 155 149
345 343 340 336 332 327 324 316 312 309 307 310 307 319 324 256 261 268 38 179 209 147 131 146 151 183 190 208 196 165 160 132 175 209 285 290 212 264 237 271 302 189 144 152 158
349 347 341 335 328 323 318 317 312 307 306 305 297 322 343 244 250 311 358 25 171 160 174 165 167 190 188 207 185 218 172 176 177 200 221 193 247 251 261 153 94 116 132 154 144
350 347 341 336 331 324 314 311 309 302 301 294 297 321 233 256 209 10 352 129 164 165 187 168 191 194 224 210 196 200 162 162 171 170 168 190 238 194 170 153 131 143 154 170 179
349 345 343 334 329 324 316 308 309 302 291 283 294 303 267 249 205 322 321 230 187 179 169 187 112 181 66 163 134 128 143 154 181 180 178 147 215 222 153 164 171 183 183 191 197
347 344 343 340 339 332 320 311 302 294 280 278 281 282 258 251 291 288 215 290 107 163 144 157 125 99 74 135 82 135 134 205 196 177 181 200 226 208 166 175 198 191 192 199 203
347 344 343 340 340 333 325 313 296 274 256 251 258 225 267 314 257 236 183 169 121 159 128 147 140 185 132 172 166 133 219 206 223 197 163 189 235 194 179 188 211 204 201 207 206
346 345 341 338 334 332 326 311 285 290 225 202 261 243 261 245 190 147 143 147 134 138 176 169 169 183 192 200 213 202 220 230 222 201 196 207 245 229 206 211 219 206 205 210 217
343 343 340 337 334 334 340 355 340 281 233 213 199 223 278 318 284 204 158 138 109 140 179 207 199 207 201 210 224 201 203 220 227 193 193 218 238 237 207 212 226 220 211 211 217
341 340 338 334 329 326 348 57 57 263 299 247 249 250 269 304 296 222 153 173 158 194 162 173 228 218 213 210 221 224 228 233 210 187 200 241 253 257 199 221 222 218 214 214 201
340 339 338 332 324 1 11 78 318 328 274 283 213 224 221 182 233 238 180 180 183 196 198 202 216 209 219 216 231 237 235 227 231 153 220 277 266 253 236 233 229 226 220 212 203
338 337 336 333 345 336 312 331 338 310 300 277 231 268 160 140 242 218 195 177 205 220 208 236 234 205 209 225 209 240 219 224 214 208 247 187 270 240 231 241 232 228 216 216 207
335 333 331 329 295 295 314 329 326 25 314 84 91 103 136 170 355 48 149 184 214 200 180 233 213 206 213 225 196 242 214 220 210 222 234 224 253 258 213 244 241 228 225 222 205
333 329 328 351 216 252 309 327 60 336 262 338 58 80 137 245 312 50 113 66 165 232 229 248 228 202 227 212 208 221 201 282 186 219 240 233 220 258 242 253 263 243 231 221 202
331 326 311 240 240 334 325 62 264 206 20 340 335 131 235 255 255 218 210 204 215 222 236 225 237 220 198 215 231 205 178 240 233 208 245 226 211 236 262 233 234 240 234 218 194
330 325 332 209 304 288 9 174 222 300 308 351 333 213 225 225 242 242 227 242 231 222 253 247 267 205 212 209 212 200 205 220 256 234 247 212 222 246 239 224 229 237 255 186 180
334 342 331 295 224 357 137 209 253 320 337 338 319 340 288 273 275 264 238 249 242 204 224 227 244 209 210 225 207 198 215 232 246 249 268 224 271 289 222 227 226 229 227 188 168
342 343 340 8 135 109 205 239 261 290 325 293 297 15 289 330 329 329 305 292 297 359 272 280 261 250 325 83 245 214 165 209 208 247 249 213 227 246 221 227 229 229 225 177 149
7 3 329 31 48 53 229 241 286 300 354 342 342 289 284 310 310 303 275 303 357 336 349 41 262 279 341 217 253 191 268 247 261 248 268 276 225 22 347 327 317 316 139 140 139
356 313 339 38 311 282 259 286 326 314 301 281 110 299 339 336 296 269 271 275 4 336 316 20 311 284 258 265 265 264 242 257 276 288 310 336 218 5 333 10 342 47 116 127 133
333 280 337 67 253 280 296 300 289 307 3 24 344 319 312 291 278 271 330 344 343 324 346 350 307 320 324 338 37 53 12 304 307 314 273 260 262 221 4 2 358 28 149 140 129
351 336 341 32 12 302 331 287 296 336 339 359 279 313 352 322 292 282 318 346 338 327 316 303 274 265 263 269 297 292 280 268 261 259 275 271 301 301 303 315 296 224 165 154 150
23 42 84 310 335 331 312 293 308 339 357 16 353 37 346 262 295 267 265 293 303 292 291 253 268 262 257 256 265 266 281 281 252 252 257 275 267 273 279 288 282 210 164 160 163
39 6 352 286 298 329 356 324 320 319 353 301 299 322 324 284 276 293 294 285 272 286 244 224 271 276 274 271 262 261 258 269 274 258 256 253 263 256 284 331 252 194 180 178 174
21 40 11 303 342 355 352 337 332 340 340 21 8 326 307 312 324 294 281 274 268 269 262 252 257 267 270 280 304 277 238 243 250 249 247 260 255 339 314 327 304 214 192 185 176